Weather History for Russellville, AR

Change the Weather History Date:

Friday, December 27, 2013

  Actual Average (KHOT) Record (KHOT)
Temperature  
Mean Temperature 40 °F -  
Max Temperature 57 °F 49 °F 73 °F (2005)
Min Temperature 23 °F 31 °F 10 °F (1983)
Degree Days  
Heating Degree Days 25    
Moisture  
Dew Point 27 °F    
Average Humidity 73    
Maximum Humidity 92    
Minimum Humidity 34    
Precipitation  
Precipitation 0.00 in - - ()
Sea Level Pressure  
Sea Level Pressure 30.39 in    
Wind  
Wind Speed 0 mph (West)    
Max Wind Speed 6 mph    
Max Gust Speed -    
Visibility 9 miles    
Events      
Averages and records for this station are not official NWS values.
T = Trace of Precipitation, MM = Missing Value Source: NWS Daily Summary

Daily Weather History Graph

Daily Weather History Graph

Search for Another Location

Airport:

Trip Planner

Search our weather history database for the weather conditions in past years. The results will help you decide how hot, cold, wet, or windy it might be!

Date:

Astronomy

Dec. 27, 2013 Rise Set
Actual Time 7:19 AM CST 5:07 PM CST
Civil Twilight 6:51 AM CST 5:35 PM CST
Nautical Twilight 6:19 AM CST 6:07 PM CST
Astronomical Twilight 5:48 AM CST 6:38 PM CST
Moon 1:59 AM CST (12/27) 1:12 PM CST (12/27)
Length of Visible Light 10h 44m
Length of Day
9h 47m
Waning Crescent, 28% of the Moon is Illuminated
Dec 27
Waning Crescent
Jan 1
New
Jan 7
First Quarter
Jan 15
Full
Jan 23
Last Quarter

Hourly Weather History & Observations

Time (CST) Temp. Windchill Dew Point Humidity Pressure Visibility Wind Dir Wind Speed Gust Speed Precip Events Conditions
12:53 AM 27.0 °F - 24.1 °F 89% 30.39 in 8.0 mi Calm Calm - N/A   Clear
1:53 AM 26.1 °F - 23.0 °F 88% 30.40 in 7.0 mi Calm Calm - N/A   Clear
2:53 AM 26.1 °F - 24.1 °F 92% 30.40 in 6.0 mi Calm Calm - N/A   Clear
3:53 AM 25.0 °F - 23.0 °F 92% 30.41 in 7.0 mi Calm Calm - N/A   Clear
4:53 AM 24.1 °F - 21.9 °F 91% 30.40 in 8.0 mi Calm Calm - N/A   Clear
5:53 AM 24.1 °F - 21.0 °F 88% 30.42 in 8.0 mi Calm Calm - N/A   Clear
6:53 AM 23.0 °F - 21.0 °F 92% 30.44 in 8.0 mi Calm Calm - N/A   Clear
7:53 AM 24.1 °F - 21.9 °F 91% 30.45 in 7.0 mi Calm Calm - N/A   Clear
8:53 AM 32.0 °F - 28.9 °F 88% 30.46 in 10.0 mi Calm Calm - N/A   Clear
9:53 AM 37.0 °F - 30.9 °F 79% 30.46 in 9.0 mi Calm Calm - N/A   Clear
10:53 AM 45.0 °F 43.5 °F 30.9 °F 58% 30.45 in 10.0 mi West 3.5 mph - N/A   Clear
11:53 AM 51.1 °F - 32.0 °F 48% 30.43 in 10.0 mi NNW 5.8 mph - N/A   Clear
12:53 PM 55.0 °F - 33.1 °F 43% 30.39 in 10.0 mi Calm Calm - N/A   Clear
1:53 PM 55.9 °F - 28.0 °F 34% 30.37 in 10.0 mi Calm Calm - N/A   Clear
2:53 PM 55.9 °F - 32.0 °F 40% 30.35 in 10.0 mi SW 3.5 mph - N/A   Clear
3:53 PM 57.0 °F - 30.0 °F 36% 30.36 in 10.0 mi Calm Calm - N/A   Clear
4:53 PM 48.9 °F - 30.0 °F 48% 30.37 in 10.0 mi Calm Calm - N/A   Clear
5:53 PM 39.9 °F - 30.9 °F 70% 30.35 in 10.0 mi Calm Calm - N/A   Clear
6:53 PM 37.0 °F - 28.9 °F 73% 30.35 in 10.0 mi Calm Calm - N/A   Clear
7:53 PM 34.0 °F - 28.0 °F 79% 30.35 in 10.0 mi Calm Calm - N/A   Clear
8:53 PM 32.0 °F - 27.0 °F 82% 30.36 in 10.0 mi Calm Calm - N/A   Clear
9:53 PM 30.9 °F - 27.0 °F 85% 30.37 in 10.0 mi Calm Calm - N/A   Clear
10:53 PM 30.0 °F - 27.0 °F 88% 30.36 in 10.0 mi Calm Calm - N/A   Clear
11:53 PM 28.9 °F - 26.1 °F 89% 30.34 in 9.0 mi Calm Calm - N/A   Clear